Simultaneous Nadir Overpasses (SNOs) Predictions

Prediction of SNOs between GOES-15 and METOP-C Satellite Orbit:

Table of predicted SNOs for the next 14.0 days since TLE Epoch: 8/19/2023
Index Date Time (GOES-15) GOES-15 Lat,Lon METOP-C Lat,Lon Distance(km) Time Diff (sec)
1 08/19/2023 23:57:27 -0.11, 140.98 -0.47, 142.62 186.11 80
2 08/21/2023 12:19:12 0.15, 139.49 -0.20, 137.95 176.56 80
3 08/24/2023 00:14:52 -0.13, 136.84 -0.42, 138.26 161.22 80
4 08/25/2023 12:36:36 0.17, 135.35 -0.25, 133.59 201.21 80
5 08/26/2023 12:13:19 0.13, 134.34 1.09, 138.54 479.53 80
6 08/28/2023 00:32:16 -0.16, 132.69 -0.40, 133.90 137.27 80
7 08/29/2023 12:54:00 0.19, 131.20 -0.27, 129.23 224.44 80
8 08/30/2023 12:30:44 0.16, 130.17 1.08, 134.18 456.97 80
9 09/01/2023 00:49:40 -0.19, 128.52 -0.40, 129.54 116.45 80
